Location: Remedello Sotto
(45.2500°N, 10.3667°E)
Time: 11:26:13
(UTC+00:00)

Cosmos 2333 Rocket - Pass Details

Date: 03 February 2023
Orbit: 837 x 864 km, 70.8° (Epoch: 30 March)

Event Time Altitude Azimuth Distance (km) Brightness Sun altitude
Rises 19:56:01 0° 246° (WSW) 3,385 6.0 -36.6°
Reaches altitude 10° 19:58:57 10° 260° (W) 2,458 5.2 -37.1°
Maximum altitude 20:03:24 23° 312° (NW) 1,709 4.2 -37.9°
Enters shadow 20:04:19 22° 327° (NNW) 1,751 4.2 -38.1°
